Regional Weather Roundup
Issued by NWS

Home | Current Version | Previous Version | Text Only | Print | Product List | Glossary On
Versions: 1 2 3 4 5 6 7 8 9 10 11 12 13 14 15 16 17 18 19 20 21 22 23 24 25 26 27 28 29 30 31 32 33 34 35 36 37 38 39 40 41 42 43 44 45 46 47 48 49 50
312
ASUS43 KMPX 290101
RWRMN
WEATHER ROUNDUP FOR MINNESOTA
NATIONAL WEATHER SERVICE TWIN CITIES/CHANHASSEN MN
800 PM CDT TUE MAR 28 2017


NOTE: "FAIR" INDICATES FEW OR NO CLOUDS BELOW 12,000 FEET WITH NO
SIGNIFICANT WEATHER AND/OR OBSTRUCTIONS TO VISIBILITY. N/A MEANS
CURRENT SKY AND/OR WEATHER CONDITIONS ARE NOT AVAILABLE.

MNZ060>063-068>070-290200-
   Twin Cities Metro

CITY           SKY/WX    TMP DP  RH WIND       PRES   REMARKS
TWIN CITIES    PTCLDY    58  30  34 E7        30.16R
ST PAUL        CLEAR     57  31  37 E5        30.16R
CRYSTAL        CLEAR     54  24  31 E3        30.15R
BLAINE         PTCLDY    57  23  26 CALM      30.16R
LAKEVILLE      CLEAR     52  36  54 CALM      30.15R
EDEN PRAIRIE   CLEAR     58  28  32 E5        30.14R
SOUTH ST PAUL  CLEAR     57  29  34 CALM      30.15R
LAKE ELMO      FAIR      54  32  43 CALM      30.17R
$$
MNZ001>005-007-008-013>017-022>024-027-028-290200-
   Northwest Minnesota

CITY           SKY/WX    TMP DP  RH WIND       PRES   REMARKS
BEMIDJI        CLEAR     48  29  48 N5        30.18R
HALLOCK        MOCLDY    41  39  93 N3        30.21R
ROSEAU         CLOUDY    39  34  81 E6        30.22R
WARROAD        PTCLDY    37  28  70 NE5       30.23R
THIEF RVR FALL CLOUDY    48  37  65 NE3       30.21R
CROOKSTON      PTCLDY    50  39  66 CALM      30.20R
FOSSTON        PTCLDY    46  36  66 CALM      30.19R
DETROIT LAKES  PTCLDY    50  36  57 CALM      30.17S
MOORHEAD       PTCLDY    52  43  71 N3        30.18R
PARK RAPIDS    PTCLDY    54  27  35 E5        30.16R
MAHNOMEN       FAIR      46  37  72 N8        30.17S
$$
MNZ006-009>011-018-025>026-290200-
   North Central Minnesota

CITY           SKY/WX    TMP DP  RH WIND       PRES   REMARKS
BAUDETTE       CLEAR     40  27  59 N6        30.21R
FLAG ISLAND    PTCLDY    39  28  65 N5        30.22R
INTL FALLS     CLEAR     45  26  47 NE3       30.21R
WASKISH        CLEAR     46  32  57 N5        30.20R
BIG FORK       CLEAR     48  25  40 CALM      30.19R
LONGVILLE      CLEAR     45  28  53 CALM      30.17R
GRAND RAPIDS   CLEAR     47  28  47 CALM      30.20R
CRANE LAKE     CLEAR     36  25  64 CALM      30.23R
ORR            CLEAR     43  23  45 CALM      30.19R
COOK           CLEAR     48  27  43 CALM      30.20R
WALKER         FAIR      49  26  41 CALM      30.17S
$$
MNZ012-019>021-037-290200-
   Northeast Minnesota

CITY           SKY/WX    TMP DP  RH WIND       PRES   REMARKS
DULUTH         PTCLDY    41  30  65 SE7       30.18R
ELY            CLEAR     46  25  42 CALM      30.19R
HIBBING        CLEAR     43  27  53 CALM      30.18R
EVELETH        CLEAR     46  19  35 CALM      30.20R
DULUTH HARBOR  CLEAR     36  34  93 CALM      30.22R
TWO HARBORS    MOCLDY    43  32  65 NE8       30.19R
GRAND MARAIS     N/A     38  27  64 NE3       30.24R
G MARAIS ARPRT CLEAR     36  23  60 NE6       30.22R
$$
MNZ029>031-032-039>041-046>048-054>057-064-290200-
   West Central Minnesota

CITY           SKY/WX    TMP DP  RH WIND       PRES   REMARKS
FERGUS FALLS   CLOUDY    52  39  62 N3        30.19R
WHEATON        CLOUDY    52  39  62 N6        30.18R
MORRIS         CLOUDY    55  37  50 CALM      30.15R
ALEXANDRIA     PTCLDY    56  32  40 S3        30.15S
ELBOW LAKE     FAIR      52  40  63 CALM      30.16R
WADENA         CLOUDY    55  34  44 NW3       30.15S
GLENWOOD       CLOUDY    52  36  54 SE5       30.16R
APPLETON       MOCLDY    57  32  38 CALM      30.15R
BENSON         CLOUDY    55  28  35 S5        30.17R
ORTONVILLE     CLOUDY    54  34  47 CALM      30.15R
MADISON        CLOUDY    54  39  58 NE7       30.15R
WILLMAR        FAIR      55  32  41 E5        30.17R
$$
MNZ033>034-036-042>043-049>051-058-059-290200-
   Central Minnesota

CITY           SKY/WX    TMP DP  RH WIND       PRES   REMARKS
ST CLOUD       PTCLDY    52  25  35 E3        30.15R
SAUK CENTRE    FAIR      53  33  46 E3        30.15R
PAYNESVILLE    PTCLDY    51  32  47 CALM      30.16R
AITKIN         CLEAR     50  25  37 CALM      30.15S
PINE RIVER     CLEAR     50  30  46 CALM      30.20R
BRAINERD       CLEAR     50  30  46 CALM      30.16R
STAPLES        PTCLDY    54  30  40 NE5       30.15S
LONG PRAIRIE   FAIR      50  34  53 E3        30.15S
LITTLE FALLS   CLEAR     48  30  49 CALM      30.16R
LITCHFIELD     PTCLDY    54  34  47 CALM      30.17R
BUFFALO        CLEAR     52  32  45 CALM      30.17R
MAPLE LAKE     PTCLDY    50  33  52 CALM      30.17R
HUTCHINSON     MOCLDY    56  34  43 NE5       30.17R
$$
MNZ037-044-045-052-053-290200-
   East Central Minnesota

CITY           SKY/WX    TMP DP  RH WIND       PRES   REMARKS
PRINCETON      CLEAR     50  28  43 CALM      30.16R
MORA           CLEAR     48  30  49 CALM      30.18R
CAMBRIDGE      CLEAR     52  32  46 CALM      30.15R
RUSH CITY      PTCLDY    51  28  39 CALM      30.16R
MOOSE LAKE     CLEAR     50  28  43 CALM      30.14R
CLOQUET        PTCLDY    52  27  37 E6        30.17R
MCGREGOR       CLEAR     50  32  50 CALM      30.17R
$$
MNZ071>073-080-081-089-090-097-098-290200-
   Southwest Minnesota

CITY           SKY/WX    TMP DP  RH WIND       PRES   REMARKS
MONTEVIDEO     MOCLDY    54  36  50 E6        30.16R
GRANITE FALLS  PTCLDY    54  35  48 NE7       30.16R
CANBY          CLOUDY    52  40  63 CALM      30.15R
MARSHALL       PTCLDY    56  36  47 E6        30.15R
REDWOOD FALLS  MOCLDY    57  32  38 E3        30.14R
OLIVIA         CLOUDY    54  34  47 E3        30.15R
PIPESTONE      PTCLDY    54  34  47 SE5       30.14R
WINDOM         CLOUDY    52  37  58 E5        30.15R
WORTHINGTON    PTCLDY    49  39  68 E6        30.15R
JACKSON        MOCLDY    48  37  66 E6        30.15R
TRACY          PTCLDY    53  38  56 SE3       30.15R
SLAYTON        CLOUDY    51  37  60 E7        30.15R
$$
MNZ065>067-074>077-082>085-091>093-290200-
   South Central Minnesota

CITY           SKY/WX    TMP DP  RH WIND       PRES   REMARKS
MANKATO        PTCLDY    53  35  50 SE5       30.16R
NEW ULM        PTCLDY    55  34  44 E5        30.14R
ST JAMES       PTCLDY    54  36  50 CALM      30.16R
FAIRMONT       MOCLDY    52  40  63 SE7       30.15R
GLENCOE        PTCLDY    56  34  44 CALM      30.15R
FARIBAULT      PTCLDY    52  36  54 E3        30.16R
OWATONNA       CLEAR     52  36  54 NE5       30.15R
WASECA         CLEAR     52  37  58 NE6       30.16R
ALBERT LEA     CLEAR     52  36  54 E6        30.14R
$$
MNZ078>079-086>088-094>096-290200-
   Southeast Minnesota

CITY           SKY/WX    TMP DP  RH WIND       PRES   REMARKS
ROCHESTER      CLEAR     50  36  58 E7        30.15R
RED WING       CLEAR     54  27  35 CALM      30.15R
STANTON        CLEAR     56  36  47 SE5       30.14R
DODGE CENTER   CLEAR     46  39  76 E6        30.15R
WINONA         CLEAR     52  37  58 CALM      30.16R
AUSTIN         CLEAR     50  37  62 NE5       30.14R
PRESTON        CLEAR     51  34  51 E6        30.16R
$$
ABBREVIATIONS USED IN REMARKS
   TC - TEMPERATURES IN CELSIUS
  WCI - WIND CHILL INDEX
   HX - HEAT INDEX
  VSB - VISIBILITY
$$




USA.gov is the U.S. government's official web portal to all federal, state and local government web resources and services.